Location: ????
(32.1228°N, 34.8377°E)
Time: 01:32:54
(UTC+00:00)

CZ-2C R/B - Pass Details

Date: 21 September 2020
Orbit: 669 x 783 km, 98.2° (Epoch: 20 October)

Event Time Altitude Azimuth Distance (km) Brightness Sun altitude
Rises 02:36:59 0° 354° (N) 3,248 5.8 -11.7°
Reaches altitude 10° 02:39:46 10° 339° (NNW) 2,329 4.9 -11.1°
Maximum altitude 02:43:34 21° 291° (WNW) 1,681 3.8 -10.3°
Drops below altitude 10° 02:47:24 10° 243° (WSW) 2,334 4.4 -9.5°
Enters shadow 02:47:27 10° 243° (WSW) 2,349 4.4 -9.5°
